Location: Howard City Library
(37.4684°N, 96.2639°W)
Time: 05:05:23
(UTC+00:00)

STARLINK-1021 - Pass Details

Date: 18 February 2020
Orbit: 549 x 550 km, 53.0° (Epoch: 29 March)

Event Time Altitude Azimuth Distance (km) Brightness Sun altitude
Rises 01:32:47 0° 237° (WSW) 2,694 8.1 -17.8°
Reaches altitude 10° 01:35:02 10° 241° (WSW) 1,803 7.2 -18.2°
Maximum altitude 01:39:04 58° 321° (NW) 637 4.0 -19.0°
Enters shadow 01:40:55 29° 28° (NNE) 1,000 4.7 -19.4°
